Wind_Speed
7 7 7 6 6 6 6 7 7 7 6 6 6 5 6 5 5 5 4 4 4 4 4 3 3 2 2 3 4 6 5 5 6 6 5 5 6 5 5 6 6 5 5
6 7 7 6 6 6 6 6 7 7 7 7 6 6 6 5 5 5 5 4 4 4 3 3 3 3 3 3 4 4 5 5 5 5 5 5 5 5 6 5 6 5 5
7 7 7 6 6 6 6 6 7 7 7 7 6 6 6 5 5 4 4 3 3 3 3 3 3 4 3 3 3 4 4 5 4 4 4 4 4 5 5 6 6 5 6
8 7 7 7 7 7 7 6 6 7 7 7 7 6 5 5 4 4 3 2 2 2 2 3 3 4 4 3 3 4 5 5 5 4 4 4 4 4 5 5 5 5 6
9 8 8 7 7 7 6 6 7 7 7 6 6 5 5 4 4 3 3 2 2 2 2 3 3 4 4 4 4 4 4 5 5 5 4 4 5 5 5 5 5 5 6
10 9 9 8 8 8 7 6 7 7 7 6 6 6 5 3 3 2 2 1 1 2 2 3 3 3 4 5 5 5 5 5 5 6 5 5 5 5 5 5 5 5 6
10 10 10 9 9 10 9 8 7 7 6 6 6 5 4 3 2 2 1 1 1 2 2 3 3 4 5 5 5 5 5 5 5 5 5 5 5 5 5 5 5 5 6
11 11 11 11 10 10 9 8 7 7 6 6 5 4 3 2 2 1 1 1 1 2 3 3 3 5 5 6 6 5 6 6 6 5 4 5 5 5 6 5 5 6 6
10 10 11 11 10 9 9 8 7 7 6 6 5 4 3 2 1 1 1 0 1 2 2 3 3 4 5 5 5 6 6 5 4 4 4 4 5 5 6 6 7 7 7
10 10 10 10 9 9 8 8 7 7 6 6 5 5 4 3 2 2 1 0 1 2 3 3 4 4 4 5 5 6 5 5 4 4 4 5 5 6 6 7 7 7 7
9 9 9 9 8 7 7 7 6 6 6 6 5 5 4 3 2 3 3 2 1 2 3 3 4 5 6 5 5 6 6 6 5 5 5 5 6 6 7 8 8 8 8
9 9 8 8 7 7 6 6 6 6 6 5 5 4 4 3 3 3 3 2 2 2 3 3 4 6 7 7 7 7 7 6 6 6 6 6 7 7 7 8 8 9 9
9 9 9 8 7 6 6 6 6 5 5 5 5 5 5 4 3 3 3 3 2 2 3 4 4 5 7 7 7 7 7 7 7 7 7 7 7 7 7 8 8 8 9
9 9 8 8 7 6 5 5 5 5 5 5 5 5 5 4 4 3 3 3 2 2 3 3 4 5 7 6 6 7 7 7 7 7 7 8 8 8 8 8 9 9 10
8 7 7 7 7 6 5 5 5 5 5 4 4 4 4 4 3 3 4 4 3 2 2 2 3 4 5 5 6 7 7 7 7 7 8 8 8 9 9 10 11 10 10
7 7 7 6 6 6 5 5 5 5 4 4 5 4 4 3 3 3 4 4 4 3 2 2 3 4 5 6 6 7 7 8 8 8 8 9 9 9 9 10 10 11 12
7 6 5 5 5 5 4 4 4 4 3 4 5 5 4 4 3 3 4 4 3 3 2 3 3 4 5 5 6 7 8 8 8 9 9 9 9 10 10 10 11 11 12
6 5 5 4 4 4 4 4 4 4 4 4 5 6 5 5 5 3 4 4 4 3 3 3 4 5 5 6 6 7 8 8 9 9 10 10 11 11 11 12 12 13 12
6 5 5 4 4 4 4 5 4 4 5 5 6 6 7 6 6 5 5 4 4 4 4 4 4 5 6 7 7 7 8 9 9 10 11 11 12 12 13 13 14 14 14
6 5 5 5 5 4 5 5 5 5 5 6 7 7 7 7 7 7 6 5 5 5 5 5 6 6 7 8 8 8 8 9 10 11 11 11 12 13 14 14 14 15 15
6 4 6 6 5 5 5 5 5 6 6 7 7 7 8 8 7 7 7 7 6 6 6 6 7 7 8 8 9 9 10 10 11 11 12 12 13 14 14 15 15 15 15
5 5 6 5 5 5 5 6 6 6 6 7 8 8 8 8 8 7 8 8 8 8 7 7 8 8 9 9 10 11 12 12 12 12 13 14 14 15 15 15 16 16 16
5 5 5 6 6 6 6 7 7 7 7 8 8 8 8 8 8 9 9 10 10 11 11 11 10 10 10 11 12 12 12 12 13 14 14 14 15 15 16 17 17 18 18
5 5 6 7 6 6 7 7 8 8 8 8 8 8 9 9 10 11 11 12 12 12 13 13 12 13 13 13 13 13 14 14 15 15 16 16 17 17 18 18 20 20 20
7 6 6 7 7 7 7 8 8 8 9 9 10 10 11 11 12 13 13 14 14 14 14 14 14 14 15 15 15 15 16 16 16 17 17 18 19 19 20 20 21 21 21
7 7 7 8 8 8 8 9 9 9 10 10 11 11 12 13 14 14 14 15 15 15 15 15 15 16 16 17 17 17 17 17 18 19 19 19 20 21 21 21 21 22 22
Wind_Direction
68 72 70 74 82 86 86 86 90 91 95 97 100 105 120 128 130 130 136 146 147 150 160 184 205 198 190 192 200 200 202 206 205 211 214 214 216 219 215 209 212 212 212
67 66 65 73 82 84 88 90 90 91 93 99 101 103 118 123 127 133 140 146 152 162 177 193 204 196 182 180 190 196 201 204 205 212 221 221 222 226 218 212 212 217 220
62 63 67 74 86 85 86 87 85 90 94 91 98 108 115 122 127 131 134 143 155 165 180 196 193 190 181 189 194 197 199 197 198 206 220 223 227 229 227 221 214 217 220
58 61 72 80 89 93 91 90 86 88 94 90 92 102 113 119 132 134 143 150 157 167 187 205 202 201 198 196 193 193 192 199 205 210 211 222 226 227 227 222 214 217 218
56 59 70 82 94 93 95 96 92 87 92 90 95 104 113 109 113 121 125 136 156 177 201 215 214 208 207 206 196 194 200 206 210 210 214 226 225 226 227 229 222 221 216
56 58 63 79 96 99 107 101 90 86 90 89 94 101 108 102 107 117 126 128 193 200 204 213 208 208 211 211 208 208 208 210 216 218 223 222 220 219 225 230 227 217 210
56 58 59 72 93 102 100 95 88 85 88 86 90 95 102 98 106 116 120 152 223 220 213 206 213 215 212 209 215 218 214 214 209 219 218 217 219 220 226 228 224 214 208
58 62 66 70 85 93 95 91 84 81 79 80 82 82 86 80 93 104 100 238 240 241 225 233 234 223 218 218 223 222 223 224 221 215 222 226 226 226 227 225 224 217 209
61 66 70 73 77 82 87 87 78 74 76 76 74 77 76 71 58 60 39 320 256 255 240 234 241 226 227 220 222 226 227 221 217 219 220 228 230 232 232 232 231 226 223
58 65 70 71 73 79 82 81 77 75 74 71 67 62 64 60 48 40 25 358 262 244 233 230 230 231 223 223 223 222 221 227 226 225 225 233 233 237 236 238 237 234 233
57 64 68 66 67 72 77 76 74 72 74 71 64 55 47 37 26 25 20 358 273 265 257 251 241 229 222 227 231 229 232 238 235 234 237 238 237 240 239 239 240 239 238
61 63 61 61 64 69 71 68 68 66 61 59 56 49 39 29 25 12 10 341 301 277 268 263 252 244 234 233 233 235 237 240 241 241 243 245 243 242 240 240 241 245 242
62 61 58 58 60 66 69 69 66 64 54 45 41 37 32 25 28 24 13 335 305 282 274 264 253 248 240 231 231 235 240 245 248 245 248 249 245 243 242 241 241 246 242
58 54 51 52 55 67 72 70 68 60 48 42 39 32 25 19 26 24 21 1 329 304 292 272 250 244 234 228 232 238 243 245 246 245 248 250 247 244 243 241 243 243 245
54 53 52 49 54 61 65 67 64 53 48 43 32 26 17 7 25 18 7 1 355 338 314 292 257 236 227 229 233 239 242 246 249 251 252 251 253 251 246 245 245 240 246
55 56 55 49 54 57 61 56 48 48 43 26 19 15 10 1 15 19 9 5 358 345 325 293 255 238 232 235 240 244 247 250 254 253 254 254 256 258 254 253 248 247 247
54 58 54 52 56 55 51 43 42 41 33 14 10 6 355 343 345 356 353 0 356 347 324 296 270 250 245 246 249 250 251 253 254 254 252 254 255 255 255 254 252 252 253
35 42 45 51 54 47 35 32 27 18 7 353 351 352 348 340 337 343 346 346 341 330 320 303 284 267 259 255 255 254 255 254 256 254 252 253 255 256 258 257 253 253 255
18 26 32 43 44 39 29 19 9 3 351 341 339 339 339 333 329 326 327 329 326 320 313 298 286 275 268 265 262 257 255 254 256 255 255 256 258 258 260 258 258 258 259
11 13 20 20 21 23 15 3 356 349 341 334 332 326 327 327 325 320 314 313 316 308 308 301 289 281 275 269 265 260 258 257 259 259 259 260 262 261 261 262 262 262 264
10 10 360 1 4 4 358 350 345 345 338 334 331 325 323 322 319 314 310 309 309 303 301 300 291 285 282 272 264 262 261 259 261 261 261 263 264 264 263 263 262 262 264
350 350 349 349 348 346 342 341 338 332 329 329 326 327 325 322 319 313 306 307 306 302 295 296 292 286 278 273 269 268 264 263 264 262 261 262 264 265 266 266 265 263 264
339 338 337 337 334 333 332 331 330 328 323 318 318 320 320 319 318 314 308 305 303 300 298 296 291 289 285 279 273 273 272 268 268 266 266 265 267 268 268 268 269 268 265
319 319 321 323 324 327 326 325 325 325 323 318 315 314 312 311 310 308 306 303 300 300 298 296 295 291 289 284 277 275 274 273 272 272 271 271 272 271 270 270 269 267 266
310 308 312 316 316 320 322 320 320 320 321 319 315 311 308 305 304 304 301 297 295 295 295 294 292 291 290 287 281 277 276 276 274 274 273 274 274 272 269 270 271 267 266
302 304 307 309 308 313 316 319 320 316 317 314 313 309 304 302 302 301 300 297 294 293 292 291 290 289 288 286 284 283 280 278 275 276 276 275 275 274 271 271 271 268 267
Height
5863 5862 5862 5862 5862 5862 5862 5862 5863 5863 5864 5865 5866 5867 5868 5869 5870 5872 5873 5874 5875 5876 5877 5878 5879 5879 5879 5878 5879 5881 5884 5885 5886 5887 5888 5889 5889 5890 5891 5892 5892 5893 5894
5864 5863 5863 5862 5862 5863 5863 5863 5863 5864 5865 5866 5866 5867 5868 5869 5871 5872 5873 5874 5875 5876 5877 5878 5879 5879 5879 5879 5880 5882 5884 5885 5886 5887 5888 5889 5889 5890 5891 5891 5892 5893 5893
5864 5863 5863 5862 5862 5863 5864 5864 5864 5865 5866 5866 5866 5867 5868 5870 5871 5872 5873 5874 5875 5876 5877 5878 5879 5879 5880 5881 5882 5883 5883 5884 5885 5887 5888 5888 5889 5889 5890 5891 5892 5892 5893
5864 5863 5862 5862 5862 5863 5864 5865 5865 5866 5866 5867 5867 5868 5869 5870 5871 5872 5873 5874 5875 5876 5877 5877 5878 5879 5880 5881 5881 5882 5883 5884 5885 5886 5887 5888 5888 5889 5890 5890 5891 5892 5892
5865 5863 5862 5862 5862 5863 5864 5865 5866 5867 5867 5868 5868 5869 5870 5871 5872 5872 5873 5874 5875 5875 5876 5877 5878 5879 5879 5880 5881 5882 5883 5884 5885 5886 5887 5887 5888 5888 5889 5890 5890 5891 5891
5866 5864 5862 5861 5861 5862 5864 5865 5867 5867 5868 5869 5869 5870 5870 5871 5872 5873 5873 5874 5874 5875 5876 5876 5877 5878 5879 5880 5881 5881 5882 5883 5884 5885 5886 5887 5887 5888 5888 5889 5889 5890 5891
5867 5865 5862 5859 5859 5862 5865 5866 5867 5868 5869 5869 5870 5870 5871 5871 5872 5872 5873 5873 5874 5874 5875 5876 5876 5877 5878 5879 5880 5881 5882 5882 5883 5884 5885 5886 5887 5887 5888 5888 5889 5890 5890
5868 5867 5864 5860 5860 5863 5866 5867 5868 5869 5869 5870 5870 5871 5871 5871 5872 5872 5873 5873 5873 5874 5874 5874 5875 5875 5877 5878 5879 5880 5881 5882 5883 5884 5884 5885 5886 5887 5887 5888 5888 5889 5889
5869 5868 5867 5865 5865 5867 5868 5869 5870 5870 5870 5870 5871 5871 5871 5871 5871 5871 5872 5872 5872 5872 5873 5873 5874 5874 5876 5877 5878 5879 5880 5881 5882 5883 5884 5884 5885 5886 5886 5887 5888 5888 5889
5871 5870 5869 5869 5869 5869 5870 5871 5871 5871 5871 5871 5871 5871 5871 5871 5871 5872 5872 5871 5871 5871 5871 5872 5872 5873 5874 5876 5877 5878 5879 5880 5881 5882 5883 5883 5884 5884 5885 5886 5887 5887 5888
5873 5872 5871 5871 5871 5871 5871 5871 5872 5872 5872 5872 5871 5871 5871 5871 5871 5871 5871 5870 5870 5870 5870 5870 5871 5872 5873 5874 5876 5877 5878 5879 5880 5881 5882 5882 5883 5883 5884 5884 5885 5886 5886
5874 5873 5873 5872 5872 5872 5872 5872 5872 5872 5872 5872 5872 5871 5871 5871 5871 5871 5870 5869 5869 5868 5868 5868 5869 5870 5871 5873 5875 5876 5877 5878 5879 5880 5881 5881 5881 5882 5882 5883 5883 5884 5884
5875 5874 5874 5873 5873 5873 5873 5873 5873 5873 5873 5873 5872 5872 5871 5871 5871 5871 5870 5868 5868 5867 5867 5867 5867 5868 5869 5871 5873 5875 5876 5877 5877 5878 5879 5879 5880 5880 5881 5881 5881 5882 5883
5876 5876 5875 5874 5874 5874 5874 5874 5874 5874 5873 5873 5872 5872 5872 5871 5871 5870 5869 5868 5867 5866 5866 5866 5866 5867 5868 5870 5872 5873 5874 5875 5876 5877 5877 5878 5878 5879 5879 5879 5880 5880 5881
5877 5877 5876 5875 5875 5875 5875 5874 5874 5874 5873 5873 5873 5872 5872 5871 5871 5870 5869 5868 5867 5866 5866 5865 5865 5866 5867 5869 5871 5872 5873 5874 5874 5875 5876 5876 5877 5877 5877 5877 5877 5878 5879
5879 5878 5877 5876 5876 5875 5875 5875 5874 5874 5873 5873 5873 5872 5872 5871 5871 5870 5869 5868 5867 5866 5866 5865 5866 5866 5867 5869 5870 5871 5871 5872 5873 5873 5874 5874 5875 5875 5875 5875 5875 5876 5877
5879 5878 5878 5877 5877 5876 5875 5875 5874 5874 5873 5873 5873 5872 5871 5871 5870 5869 5869 5868 5867 5867 5866 5866 5866 5866 5867 5868 5869 5869 5870 5870 5871 5871 5872 5872 5872 5873 5873 5873 5873 5874 5874
5879 5878 5878 5877 5877 5877 5876 5875 5875 5874 5874 5873 5872 5871 5871 5870 5869 5868 5868 5867 5867 5866 5866 5865 5865 5866 5866 5866 5867 5868 5868 5868 5869 5869 5869 5870 5870 5870 5870 5871 5871 5871 5871
5880 5879 5878 5877 5877 5876 5876 5875 5874 5874 5873 5872 5872 5871 5870 5869 5868 5867 5867 5866 5866 5865 5865 5864 5864 5864 5864 5865 5865 5865 5866 5866 5866 5866 5867 5867 5867 5867 5868 5868 5868 5868 5868
5879 5878 5878 5877 5877 5876 5875 5875 5874 5873 5873 5872 5871 5870 5869 5868 5867 5866 5866 5865 5864 5864 5863 5863 5863 5863 5863 5863 5863 5863 5863 5863 5863 5864 5864 5864 5864 5864 5864 5864 5864 5864 5864
5879 5878 5878 5877 5876 5875 5875 5874 5873 5873 5872 5871 5870 5869 5868 5867 5866 5865 5864 5864 5863 5862 5862 5861 5861 5861 5860 5860 5860 5860 5860 5860 5860 5861 5861 5861 5861 5861 5860 5860 5860 5860 5860
5879 5878 5878 5877 5876 5875 5874 5873 5872 5871 5870 5870 5868 5867 5866 5866 5865 5864 5863 5862 5861 5860 5860 5859 5859 5858 5858 5857 5857 5857 5857 5858 5857 5857 5857 5857 5857 5857 5856 5856 5855 5855 5855
5878 5878 5877 5876 5875 5874 5873 5872 5871 5870 5869 5868 5867 5865 5865 5864 5863 5862 5861 5860 5859 5858 5857 5857 5856 5855 5855 5855 5854 5854 5854 5854 5854 5854 5853 5853 5852 5852 5852 5851 5851 5850 5850
5877 5877 5876 5875 5874 5872 5871 5871 5870 5869 5868 5867 5865 5864 5863 5862 5861 5860 5859 5858 5857 5856 5855 5854 5853 5852 5852 5851 5850 5850 5850 5850 5850 5850 5849 5848 5848 5847 5847 5846 5846 5845 5845
5876 5875 5875 5874 5873 5871 5870 5869 5868 5867 5866 5865 5864 5862 5861 5860 5859 5858 5856 5855 5854 5852 5851 5850 5850 5849 5848 5847 5846 5846 5845 5845 5845 5845 5845 5844 5843 5842 5841 5840 5839 5839 5839
5874 5873 5873 5872 5871 5870 5869 5868 5866 5865 5864 5862 5861 5860 5859 5857 5856 5854 5853 5851 5850 5849 5848 5847 5846 5845 5844 5843 5842 5841 5841 5840 5840 5840 5839 5839 5838 5836 5835 5835 5834 5833 5833